,,,PA_Meas_PMT16A,,PR_Meas_QMR101_102,,RH_Meas_QMH101,,SR_Meas_QMS101,,TA_Meas_QMH101,,GenWind,,GenWind,
date,time,status,PA,status,PR,status,RH,status,SR,status,TA,status,DirAvg,status,SpdAvg,
2012-03-30, 00:00:04,VALID,1002.18,VALID,0,VALID,93.7985,VALID,0,VALID,23.7597,VALID,42,VALID,0.895703,
2012-03-30, 00:01:04,VALID,1002.16,VALID,0,VALID,93.7985,VALID,0,VALID,23.7597,VALID,42,VALID,0.901172,
2012-03-30, 00:02:04,VALID,1002.16,VALID,0,VALID,93.6002,VALID,0,VALID,23.7597,VALID,32,VALID,0.88125,
2012-03-30, 00:03:04,VALID,1002.15,VALID,0,VALID,93.4247,VALID,0,VALID,23.7207,VALID,32,VALID,0.790234,
2012-03-30, 00:04:04,VALID,1002.13,VALID,0,VALID,93.5697,VALID,0,VALID,23.7012,VALID,41,VALID,1.09727,
2012-03-30, 00:05:04,VALID,1002.08,VALID,0,VALID,93.6688,VALID,0,VALID,23.7207,VALID,55,VALID,1.32187,
2012-03-30, 00:06:04,VALID,1002.13,VALID,0,VALID,93.6154,VALID,0,VALID,23.7012,VALID,55,VALID,0.958203,
2012-03-30, 00:07:04,VALID,1002.1,VALID,0,VALID,93.4781,VALID,0,VALID,23.6622,VALID,52,VALID,1.02148,
2012-03-30, 00:08:04,VALID,1002.03,VALID,0,VALID,93.3866,VALID,0,VALID,23.6427,VALID,52,VALID,0.944531,
2012-03-30, 00:09:04,VALID,1002.05,VALID,0,VALID,93.5468,VALID,0,VALID,23.6232,VALID,53,VALID,1.05977,
2012-03-30, 00:10:04,VALID,1002.06,VALID,0,VALID,93.6536,VALID,0,VALID,23.6232,VALID,58,VALID,0.85625,
2012-03-30, 00:11:04,VALID,1002.07,VALID,0,VALID,93.6154,VALID,0,VALID,23.6036,VALID,58,VALID,0.56875,
2012-03-30, 00:12:04,VALID,1002.06,VALID,0,VALID,93.5544,VALID,0,VALID,23.5646,VALID,42,VALID,0.601953,
2012-03-30, 00:13:04,VALID,1002.1,VALID,0,VALID,93.5926,VALID,0,VALID,23.5451,VALID,344,VALID,1.04102,
2012-03-30, 00:14:04,VALID,1002.09,VALID,0,VALID,93.6536,VALID,0,VALID,23.5451,VALID,336,VALID,0.779297,
2012-03-30, 00:15:04,VALID,1002.04,VALID,0,VALID,93.7375,VALID,0,VALID,23.5256,VALID,345,VALID,0.350391,
2012-03-30, 00:16:04,VALID,1002.04,VALID,0,VALID,93.8291,VALID,0,VALID,23.5451,VALID,71,VALID,1.06016,
2012-03-30, 00:17:04,VALID,1002.03,VALID,0,VALID,93.8977,VALID,0,VALID,23.5451,VALID,69,VALID,0.515234,
2012-03-30, 00:18:04,VALID,1002.02,VALID,0,VALID,93.913,VALID,0,VALID,23.5451,VALID,12,VALID,0.876562,
2012-03-30, 00:19:04,VALID,1002.03,VALID,0,VALID,93.9054,VALID,0,VALID,23.5256,VALID,3,VALID,0.699219,
2012-03-30, 00:20:04,VALID,1002.02,VALID,0,VALID,94.0198,VALID,0,VALID,23.5256,VALID,3,VALID,0.494922,
2012-03-30, 00:21:04,VALID,1001.98,VALID,0,VALID,94.0427,VALID,0,VALID,23.5451,VALID,3,VALID,0.272656,
2012-03-30, 00:22:04,VALID,1001.96,VALID,0,VALID,94.0427,VALID,0,VALID,23.5451,VALID,3,VALID,0,
2012-03-30, 00:23:04,VALID,1001.91,VALID,0,VALID,94.0274,VALID,0,VALID,23.5256,VALID,3,VALID,0,
2012-03-30, 00:24:04,VALID,1001.92,VALID,0,VALID,93.974,VALID,0,VALID,23.5256,VALID,3,VALID,0,
2012-03-30, 00:25:04,VALID,1001.9,VALID,0,VALID,93.9435,VALID,0,VALID,23.5256,VALID,3,VALID,0,
2012-03-30, 00:26:04,VALID,1001.9,VALID,0,VALID,93.974,VALID,0,VALID,23.5256,VALID,3,VALID,0.444531,
2012-03-30, 00:27:04,VALID,1001.93,VALID,0,VALID,94.0351,VALID,0,VALID,23.5451,VALID,3,VALID,0.338672,
2012-03-30, 00:28:04,VALID,1001.94,VALID,0,VALID,94.0274,VALID,0,VALID,23.5451,VALID,3,VALID,0.108594,
2012-03-30, 00:29:04,VALID,1001.95,VALID,0,VALID,94.0122,VALID,0,VALID,23.5256,VALID,3,VALID,0,
2012-03-30, 00:30:04,VALID,1001.94,VALID,0,VALID,93.9817,VALID,0,VALID,23.5256,VALID,3,VALID,0.270312,
2012-03-30, 00:31:04,VALID,1001.96,VALID,0,VALID,93.974,VALID,0,VALID,23.5061,VALID,3,VALID,0.41875,
2012-03-30, 00:32:04,VALID,1001.95,VALID,0,VALID,94.0351,VALID,0,VALID,23.5256,VALID,3,VALID,0.619922,
2012-03-30, 00:33:04,VALID,1001.93,VALID,0,VALID,94.1266,VALID,0,VALID,23.5238,VALID,4,VALID,0.632422,
2012-03-30, 00:34:04,VALID,1001.95,VALID,0,VALID,94.1266,VALID,0,VALID,23.5646,VALID,4,VALID,0.572656,
2012-03-30, 00:35:04,VALID,1001.94,VALID,0,VALID,94.0885,VALID,0,VALID,23.5841,VALID,4,VALID,0.313281,
2012-03-30, 00:36:04,VALID,1001.91,VALID,0,VALID,94.0045,VALID,0,VALID,23.5646,VALID,4,VALID,0.505469,
2012-03-30, 00:37:04,VALID,1001.88,VALID,0,VALID,93.9206,VALID,0,VALID,23.5646,VALID,4,VALID,0.649609,
2012-03-30, 00:38:04,VALID,1001.84,VALID,0,VALID,93.9054,VALID,0,VALID,23.5646,VALID,4,VALID,0.654297,
2012-03-30, 00:39:04,VALID,1001.82,VALID,0,VALID,93.8596,VALID,0,VALID,23.5451,VALID,86,VALID,0.666797,
2012-03-30, 00:40:04,VALID,1001.8,VALID,0,VALID,93.9054,VALID,0,VALID,23.5646,VALID,86,VALID,0.579297,
2012-03-30, 00:41:04,VALID,1001.8,VALID,0,VALID,93.9511,VALID,0,VALID,23.5433,VALID,86,VALID,0.546875,
2012-03-30, 00:42:04,VALID,1001.8,VALID,0,VALID,93.9588,VALID,0,VALID,23.5841,VALID,86,VALID,0.397656,
2012-03-30, 00:43:04,VALID,1001.76,VALID,0,VALID,93.9664,VALID,0,VALID,23.6036,VALID,86,VALID,0.285156,
2012-03-30, 00:44:04,VALID,1001.73,VALID,0,VALID,93.9511,VALID,0,VALID,23.6036,VALID,86,VALID,0.199609,
2012-03-30, 00:45:04,VALID,1001.73,VALID,0,VALID,93.9359,VALID,0,VALID,23.6036,VALID,86,VALID,0.389453,
2012-03-30, 00:46:04,VALID,1001.74,VALID,0,VALID,93.8825,VALID,0,VALID,23.6036,VALID,86,VALID,0.326562,
2012-03-30, 00:47:04,VALID,1001.74,VALID,0,VALID,93.8901,VALID,0,VALID,23.6036,VALID,86,VALID,0.392188,
2012-03-30, 00:48:04,VALID,1001.71,VALID,0,VALID,93.9206,VALID,0,VALID,23.6232,VALID,86,VALID,0.257031,
2012-03-30, 00:49:04,VALID,1001.73,VALID,0,VALID,93.8748,VALID,0,VALID,23.6036,VALID,86,VALID,0.344141,
2012-03-30, 00:50:04,VALID,1001.68,VALID,0,VALID,93.8825,VALID,0,VALID,23.6232,VALID,86,VALID,0.272266,
2012-03-30, 00:51:04,VALID,1001.66,VALID,0,VALID,93.9283,VALID,0,VALID,23.6232,VALID,86,VALID,0.2375,
2012-03-30, 00:52:04,VALID,1001.63,VALID,0,VALID,93.974,VALID,0,VALID,23.6232,VALID,86,VALID,0.222266,
2012-03-30, 00:53:04,VALID,1001.58,VALID,0,VALID,93.974,VALID,0,VALID,23.6427,VALID,86,VALID,0.30625,
2012-03-30, 00:54:04,VALID,1001.59,VALID,0,VALID,93.9969,VALID,0,VALID,23.6232,VALID,86,VALID,0.403125,
2012-03-30, 00:55:04,VALID,1001.57,VALID,0,VALID,93.974,VALID,0,VALID,23.6232,VALID,86,VALID,0.339063,
2012-03-30, 00:56:04,VALID,1001.55,VALID,0,VALID,93.9664,VALID,0,VALID,23.6232,VALID,86,VALID,0.397656,
2012-03-30, 00:57:04,VALID,1001.53,VALID,0,VALID,93.9664,VALID,0,VALID,23.6232,VALID,86,VALID,0.374609,
2012-03-30, 00:58:04,VALID,1001.53,VALID,0,VALID,93.9435,VALID,0,VALID,23.6036,VALID,86,VALID,0.321875,
2012-03-30, 00:59:04,VALID,1001.51,VALID,0,VALID,93.9435,VALID,0,VALID,23.5841,VALID,85,VALID,0.476953,
2012-03-30, 01:00:04,VALID,1001.49,VALID,0,VALID,93.9511,VALID,0,VALID,23.5823,VALID,85,VALID,0.373437,
2012-03-30, 01:01:04,VALID,1001.41,VALID,0,VALID,93.913,VALID,0,VALID,23.5646,VALID,85,VALID,0.466406,
2012-03-30, 01:02:04,VALID,1001.44,VALID,0,VALID,93.9664,VALID,0,VALID,23.5451,VALID,85,VALID,0.18125,
2012-03-30, 01:03:04,VALID,1001.42,VALID,0,VALID,93.974,VALID,0,VALID,23.5451,VALID,85,VALID,0,
2012-03-30, 01:04:04,VALID,1001.4,VALID,0,VALID,93.9283,VALID,0,VALID,23.5451,VALID,85,VALID,0,
2012-03-30, 01:05:04,VALID,1001.39,VALID,0,VALID,93.9511,VALID,0,VALID,23.5451,VALID,85,VALID,0,
2012-03-30, 01:06:04,VALID,1001.41,VALID,0,VALID,93.9588,VALID,0,VALID,23.5238,VALID,85,VALID,0,
2012-03-30, 01:07:04,VALID,1001.38,VALID,0,VALID,93.9588,VALID,0,VALID,23.5043,VALID,85,VALID,0,
2012-03-30, 01:08:04,VALID,1001.4,VALID,0,VALID,93.9969,VALID,0,VALID,23.5256,VALID,85,VALID,0,
2012-03-30, 01:09:04,VALID,1001.42,VALID,0,VALID,93.9969,VALID,0,VALID,23.5043,VALID,85,VALID,0.100781,
2012-03-30, 01:10:04,VALID,1001.41,VALID,0,VALID,94.0503,VALID,0,VALID,23.5043,VALID,85,VALID,0.183203,
2012-03-30, 01:11:04,VALID,1001.43,VALID,0,VALID,94.0808,VALID,0,VALID,23.5451,VALID,85,VALID,0,
2012-03-30, 01:12:05,VALID,1001.43,VALID,0,VALID,94.1266,VALID,0,VALID,23.5238,VALID,85,VALID,0.275,
2012-03-30, 01:13:05,VALID,1001.38,VALID,0,VALID,94.1495,VALID,0,VALID,23.5451,VALID,85,VALID,0.368359,
2012-03-30, 01:14:05,VALID,1001.34,VALID,0,VALID,94.1571,VALID,0,VALID,23.5238,VALID,85,VALID,0.327734,
2012-03-30, 01:15:05,VALID,1001.33,VALID,0,VALID,94.18,VALID,0,VALID,23.5433,VALID,85,VALID,0.0105469,
2012-03-30, 01:16:05,VALID,1001.32,VALID,0,VALID,94.1571,VALID,0,VALID,23.5646,VALID,85,VALID,0,
2012-03-30, 01:17:05,VALID,1001.3,VALID,0,VALID,94.1648,VALID,0,VALID,23.5841,VALID,85,VALID,0.2375,
2012-03-30, 01:18:05,VALID,1001.29,VALID,0,VALID,94.1724,VALID,0,VALID,23.5628,VALID,85,VALID,0.219141,
2012-03-30, 01:19:05,VALID,1001.3,VALID,0,VALID,94.2105,VALID,0,VALID,23.5628,VALID,85,VALID,0.0175781,
2012-03-30, 01:20:05,VALID,1001.29,VALID,0,VALID,94.1877,VALID,0,VALID,23.6036,VALID,85,VALID,0,
2012-03-30, 01:21:05,VALID,1001.32,VALID,0,VALID,94.2029,VALID,0,VALID,23.5823,VALID,85,VALID,0.253125,
2012-03-30, 01:22:05,VALID,1001.28,VALID,0,VALID,94.2716,VALID,0,VALID,23.6232,VALID,85,VALID,0.733984,
2012-03-30, 01:23:05,VALID,1001.34,VALID,0,VALID,94.264,VALID,0,VALID,23.6019,VALID,85,VALID,0.706641,
2012-03-30, 01:24:05,VALID,1001.34,VALID,0,VALID,94.2563,VALID,0,VALID,23.6214,VALID,85,VALID,0.821094,
2012-03-30, 01:25:05,VALID,1001.31,VALID,0,VALID,94.2029,VALID,0,VALID,23.6214,VALID,85,VALID,0.4125,
2012-03-30, 01:26:05,VALID,1001.31,VALID,0,VALID,94.0885,VALID,0,VALID,23.6232,VALID,85,VALID,0.349609,
2012-03-30, 01:27:05,VALID,1001.3,VALID,0,VALID,94.0427,VALID,0,VALID,23.6232,VALID,85,VALID,0.408203,
2012-03-30, 01:28:05,VALID,1001.3,VALID,0,VALID,94.0122,VALID,0,VALID,23.6036,VALID,85,VALID,0.516797,
2012-03-30, 01:29:05,VALID,1001.29,VALID,0,VALID,94.0045,VALID,0,VALID,23.6036,VALID,344,VALID,0.592969,
2012-03-30, 01:30:05,VALID,1001.29,VALID,0,VALID,93.9969,VALID,0,VALID,23.5628,VALID,344,VALID,0.388672,
2012-03-30, 01:31:05,VALID,1001.29,VALID,0,VALID,94.0351,VALID,0,VALID,23.5841,VALID,344,VALID,0.158984,
2012-03-30, 01:32:05,VALID,1001.25,VALID,0,VALID,94.0503,VALID,0,VALID,23.5433,VALID,344,VALID,0,
2012-03-30, 01:33:05,VALID,1001.27,VALID,0,VALID,94.0732,VALID,0,VALID,23.5451,VALID,344,VALID,0,
2012-03-30, 01:34:05,VALID,1001.28,VALID,0,VALID,94.1037,VALID,0,VALID,23.5451,VALID,344,VALID,0,
2012-03-30, 01:35:05,VALID,1001.28,VALID,0,VALID,94.1877,VALID,0,VALID,23.5646,VALID,344,VALID,0,
2012-03-30, 01:36:05,VALID,1001.25,VALID,0,VALID,94.2105,VALID,0,VALID,23.5646,VALID,344,VALID,0,
2012-03-30, 01:37:05,VALID,1001.27,VALID,0,VALID,94.1953,VALID,0,VALID,23.5238,VALID,344,VALID,0,
2012-03-30, 01:38:05,VALID,1001.27,VALID,0,VALID,94.0961,VALID,0,VALID,23.5256,VALID,344,VALID,0,
2012-03-30, 01:39:05,VALID,1001.27,VALID,0,VALID,94.0961,VALID,0,VALID,23.5061,VALID,344,VALID,0.515234,
2012-03-30, 01:40:05,VALID,1001.24,VALID,0,VALID,94.1266,VALID,0,VALID,23.4848,VALID,344,VALID,0.409766,
2012-03-30, 01:41:05,VALID,1001.21,VALID,0,VALID,94.1571,VALID,0,VALID,23.4848,VALID,344,VALID,0.06875,
2012-03-30, 01:42:05,VALID,1001.19,VALID,0,VALID,94.2029,VALID,0,VALID,23.4848,VALID,344,VALID,0,
2012-03-30, 01:43:05,VALID,1001.18,VALID,0,VALID,94.2258,VALID,0,VALID,23.4848,VALID,344,VALID,0,
2012-03-30, 01:44:05,VALID,1001.21,VALID,0,VALID,94.2258,VALID,0,VALID,23.4848,VALID,344,VALID,0,
2012-03-30, 01:45:05,VALID,1001.23,VALID,0,VALID,94.2487,VALID,0,VALID,23.4653,VALID,344,VALID,0,
2012-03-30, 01:46:05,VALID,1001.25,VALID,0,VALID,94.264,VALID,0,VALID,23.4848,VALID,344,VALID,0.28125,
2012-03-30, 01:47:05,VALID,1001.24,VALID,0,VALID,94.2868,VALID,0.104696,VALID,23.4653,VALID,344,VALID,0.780078,
2012-03-30, 01:48:05,VALID,1001.24,VALID,0,VALID,94.2792,VALID,0,VALID,23.4653,VALID,344,VALID,0.608594,
2012-03-30, 01:49:05,VALID,1001.21,VALID,0,VALID,94.2792,VALID,0,VALID,23.4458,VALID,344,VALID,0.541406,
2012-03-30, 01:50:05,VALID,1001.17,VALID,0,VALID,94.2716,VALID,0,VALID,23.4475,VALID,344,VALID,0.614844,
2012-03-30, 01:51:05,VALID,1001.16,VALID,0,VALID,94.264,VALID,0,VALID,23.4263,VALID,344,VALID,0.570703,
2012-03-30, 01:52:05,VALID,1001.14,VALID,0,VALID,94.2563,VALID,0,VALID,23.4475,VALID,344,VALID,0.385938,
2012-03-30, 01:53:05,VALID,1001.14,VALID,0,VALID,94.264,VALID,0,VALID,23.4067,VALID,344,VALID,0.460938,
2012-03-30, 01:54:05,VALID,1001.13,VALID,0,VALID,94.325,VALID,0,VALID,23.4067,VALID,344,VALID,0.433984,
2012-03-30, 01:55:05,VALID,1001.15,VALID,0,VALID,94.3555,VALID,0,VALID,23.4263,VALID,344,VALID,0.0367187,
2012-03-30, 01:56:05,VALID,1001.16,VALID,0,VALID,94.3708,VALID,0,VALID,23.4458,VALID,344,VALID,0,
2012-03-30, 01:57:05,VALID,1001.12,VALID,0,VALID,94.3708,VALID,0,VALID,23.4475,VALID,344,VALID,0,
2012-03-30, 01:58:05,VALID,1001.12,VALID,0,VALID,94.3555,VALID,0,VALID,23.4263,VALID,344,VALID,0.501172,
2012-03-30, 01:59:05,VALID,1001.03,VALID,0,VALID,94.3555,VALID,0,VALID,23.4458,VALID,344,VALID,0.565234,
2012-03-30, 02:00:05,VALID,1001,VALID,0,VALID,94.3784,VALID,0,VALID,23.4653,VALID,344,VALID,0.508594,
2012-03-30, 02:01:05,VALID,1000.99,VALID,0,VALID,94.386,VALID,0,VALID,23.4866,VALID,344,VALID,0.472656,
2012-03-30, 02:02:05,VALID,1001.03,VALID,0,VALID,94.4013,VALID,0,VALID,23.4653,VALID,344,VALID,0.331641,
2012-03-30, 02:03:05,VALID,1001.01,VALID,0,VALID,94.4165,VALID,0,VALID,23.5061,VALID,344,VALID,0.388672,
2012-03-30, 02:04:05,VALID,1000.98,VALID,0,VALID,94.4242,VALID,0,VALID,23.4848,VALID,344,VALID,0.435547,
2012-03-30, 02:05:05,VALID,1000.99,VALID,0,VALID,94.4547,VALID,0,VALID,23.5043,VALID,344,VALID,0.638672,
2012-03-30, 02:06:05,VALID,1000.98,VALID,0,VALID,94.4852,VALID,0,VALID,23.5238,VALID,344,VALID,0.424609,
2012-03-30, 02:07:05,VALID,1000.96,VALID,0,VALID,94.4776,VALID,0,VALID,23.5238,VALID,344,VALID,0.45,
2012-03-30, 02:08:05,VALID,1000.95,VALID,0,VALID,94.4852,VALID,0,VALID,23.5238,VALID,344,VALID,0.495703,
2012-03-30, 02:09:05,VALID,1000.97,VALID,0,VALID,94.4776,VALID,0,VALID,23.5238,VALID,344,VALID,0.58125,
2012-03-30, 02:10:05,VALID,1000.92,VALID,0,VALID,94.4394,VALID,0,VALID,23.5451,VALID,344,VALID,0.357812,
2012-03-30, 02:11:05,VALID,1000.92,VALID,0,VALID,94.4242,VALID,0,VALID,23.5238,VALID,344,VALID,0.157422,
2012-03-30, 02:12:05,VALID,1000.89,VALID,0,VALID,94.4165,VALID,0,VALID,23.5256,VALID,344,VALID,0.572656,
2012-03-30, 02:13:05,VALID,1000.88,VALID,0,VALID,94.4089,VALID,0,VALID,23.5256,VALID,344,VALID,0.758203,
2012-03-30, 02:14:05,VALID,1000.86,VALID,0,VALID,94.4165,VALID,0,VALID,23.4848,VALID,356,VALID,0.857813,
2012-03-30, 02:15:05,VALID,1000.83,VALID,0,VALID,94.4013,VALID,0,VALID,23.4866,VALID,27,VALID,1.03906,
2012-03-30, 02:16:05,VALID,1000.82,VALID,0,VALID,94.3937,VALID,0,VALID,23.4653,VALID,39,VALID,1.11133,
2012-03-30, 02:17:05,VALID,1000.82,VALID,0,VALID,94.3708,VALID,0,VALID,23.4458,VALID,40,VALID,1.23086,
2012-03-30, 02:18:05,VALID,1000.82,VALID,0,VALID,94.3784,VALID,0,VALID,23.4671,VALID,40,VALID,1.08008,
2012-03-30, 02:19:05,VALID,1000.87,VALID,0,VALID,94.3784,VALID,0,VALID,23.428,VALID,40,VALID,1.1918,
2012-03-30, 02:20:05,VALID,1000.83,VALID,0,VALID,94.3631,VALID,0,VALID,23.428,VALID,40,VALID,0.887891,
2012-03-30, 02:21:05,VALID,1000.84,VALID,0,VALID,94.3631,VALID,0,VALID,23.4085,VALID,43,VALID,0.702734,
2012-03-30, 02:22:05,VALID,1000.8,VALID,0,VALID,94.386,VALID,0,VALID,23.4085,VALID,43,VALID,0.724609,
2012-03-30, 02:23:05,VALID,1000.82,VALID,0,VALID,94.4318,VALID,0,VALID,23.4085,VALID,43,VALID,0.404687,
2012-03-30, 02:24:05,VALID,1000.77,VALID,0,VALID,94.4776,VALID,0,VALID,23.4085,VALID,43,VALID,0.419922,
2012-03-30, 02:25:05,VALID,1000.75,VALID,0,VALID,94.5005,VALID,0,VALID,23.428,VALID,356,VALID,0.397266,
2012-03-30, 02:26:05,VALID,1000.73,VALID,0,VALID,94.5081,VALID,0,VALID,23.4263,VALID,356,VALID,0.0261719,
2012-03-30, 02:27:05,VALID,1000.77,VALID,0,VALID,94.5234,VALID,0,VALID,23.428,VALID,356,VALID,0,
2012-03-30, 02:28:05,VALID,1000.75,VALID,0,VALID,94.5539,VALID,0,VALID,23.4475,VALID,356,VALID,0,
2012-03-30, 02:29:05,VALID,1000.74,VALID,0,VALID,94.5462,VALID,0,VALID,23.4475,VALID,356,VALID,0.0140625,
2012-03-30, 02:30:05,VALID,1000.77,VALID,0,VALID,94.5081,VALID,0,VALID,23.4067,VALID,356,VALID,0.314453,
2012-03-30, 02:31:05,VALID,1000.78,VALID,0,VALID,94.4471,VALID,0,VALID,23.4085,VALID,30,VALID,0.481641,
2012-03-30, 02:32:05,VALID,1000.8,VALID,0,VALID,94.4165,VALID,0,VALID,23.389,VALID,104,VALID,0.903516,
2012-03-30, 02:33:05,VALID,1000.78,VALID,0,VALID,94.4089,VALID,0,VALID,23.3677,VALID,104,VALID,0.40625,
2012-03-30, 02:34:05,VALID,1000.8,VALID,0,VALID,94.3708,VALID,0,VALID,23.389,VALID,104,VALID,0,
2012-03-30, 02:35:05,VALID,1000.8,VALID,0,VALID,94.3479,VALID,0,VALID,23.3695,VALID,104,VALID,0.332031,
2012-03-30, 02:36:05,VALID,1000.82,VALID,0,VALID,94.3479,VALID,0,VALID,23.3695,VALID,104,VALID,0.309375,
2012-03-30, 02:37:05,VALID,1000.79,VALID,0,VALID,94.3555,VALID,0,VALID,23.3677,VALID,104,VALID,0.427344,
2012-03-30, 02:38:05,VALID,1000.8,VALID,0,VALID,94.3784,VALID,0,VALID,23.389,VALID,104,VALID,0.00585938,
2012-03-30, 02:39:05,VALID,1000.81,VALID,0,VALID,94.3784,VALID,0,VALID,23.3482,VALID,104,VALID,0,
2012-03-30, 02:40:05,VALID,1000.79,VALID,0,VALID,94.4013,VALID,0,VALID,23.389,VALID,104,VALID,0,
2012-03-30, 02:41:05,VALID,1000.81,VALID,0,VALID,94.4318,VALID,0,VALID,23.389,VALID,104,VALID,0,
2012-03-30, 02:42:05,VALID,1000.8,VALID,0,VALID,94.4318,VALID,0,VALID,23.389,VALID,104,VALID,0,
2012-03-30, 02:43:05,VALID,1000.79,VALID,0,VALID,94.4623,VALID,0,VALID,23.3677,VALID,104,VALID,0,
2012-03-30, 02:44:05,VALID,1000.79,VALID,0,VALID,94.4165,VALID,0,VALID,23.3482,VALID,104,VALID,0,
2012-03-30, 02:45:05,VALID,1000.79,VALID,0,VALID,94.4471,VALID,0,VALID,23.3677,VALID,104,VALID,0,
2012-03-30, 02:46:05,VALID,1000.82,VALID,0,VALID,94.4242,VALID,0,VALID,23.3695,VALID,104,VALID,0.377344,
2012-03-30, 02:47:05,VALID,1000.79,VALID,0,VALID,94.4318,VALID,0,VALID,23.3695,VALID,91,VALID,0.628906,
2012-03-30, 02:48:05,VALID,1000.76,VALID,0,VALID,94.4013,VALID,0,VALID,23.35,VALID,55,VALID,0.764063,
2012-03-30, 02:49:05,VALID,1000.75,VALID,0,VALID,94.3937,VALID,0,VALID,23.3305,VALID,55,VALID,0.810547,
2012-03-30, 02:50:05,VALID,1000.73,VALID,0,VALID,94.4165,VALID,0,VALID,23.311,VALID,55,VALID,0.883594,
2012-03-30, 02:51:05,VALID,1000.72,VALID,0,VALID,94.4928,VALID,0,VALID,23.3092,VALID,55,VALID,0.852344,
2012-03-30, 02:52:05,VALID,1000.67,VALID,0,VALID,94.531,VALID,0,VALID,23.3305,VALID,55,VALID,0.844141,
2012-03-30, 02:53:05,VALID,1000.72,VALID,0,VALID,94.5691,VALID,0,VALID,23.3092,VALID,55,VALID,0.619531,
2012-03-30, 02:54:05,VALID,1000.68,VALID,0,VALID,94.5844,VALID,0,VALID,23.3287,VALID,55,VALID,0.321094,
2012-03-30, 02:55:05,VALID,1000.68,VALID,0,VALID,94.5615,VALID,0,VALID,23.3305,VALID,55,VALID,0.454688,
2012-03-30, 02:56:05,VALID,1000.68,VALID,0,VALID,94.5539,VALID,0,VALID,23.311,VALID,55,VALID,0.520703,
2012-03-30, 02:57:05,VALID,1000.67,VALID,0,VALID,94.5462,VALID,0,VALID,23.311,VALID,55,VALID,0.617188,
2012-03-30, 02:58:05,VALID,1000.66,VALID,0,VALID,94.531,VALID,0,VALID,23.2702,VALID,55,VALID,0.514844,
2012-03-30, 02:59:05,VALID,1000.67,VALID,0,VALID,94.5081,VALID,0,VALID,23.2719,VALID,55,VALID,0.419531,
2012-03-30, 03:00:05,VALID,1000.69,VALID,0,VALID,94.4928,VALID,0,VALID,23.2329,VALID,55,VALID,0.316406,
2012-03-30, 03:01:05,VALID,1000.71,VALID,0,VALID,94.4623,VALID,0,VALID,23.1921,VALID,55,VALID,0,
2012-03-30, 03:02:05,VALID,1000.71,VALID,0,VALID,94.4242,VALID,0,VALID,23.1744,VALID,55,VALID,0.26875,
2012-03-30, 03:03:05,VALID,1000.75,VALID,0,VALID,94.4242,VALID,0,VALID,23.1549,VALID,55,VALID,0.476563,
2012-03-30, 03:04:05,VALID,1000.74,VALID,0,VALID,94.4471,VALID,0,VALID,23.1354,VALID,55,VALID,0.7875,
2012-03-30, 03:05:05,VALID,1000.74,VALID,0,VALID,94.5157,VALID,0,VALID,23.1354,VALID,55,VALID,0.675391,
2012-03-30, 03:06:05,VALID,1000.68,VALID,0,VALID,94.5844,VALID,0,VALID,23.1354,VALID,55,VALID,0.504297,
2012-03-30, 03:07:05,VALID,1000.75,VALID,0,VALID,94.5844,VALID,0,VALID,23.1141,VALID,55,VALID,0.234766,
2012-03-30, 03:08:05,VALID,1000.71,VALID,0,VALID,94.5615,VALID,0,VALID,23.1159,VALID,55,VALID,0.192188,
2012-03-30, 03:09:05,VALID,1000.76,VALID,0,VALID,94.5691,VALID,0,VALID,23.0751,VALID,55,VALID,0.2125,
2012-03-30, 03:10:05,VALID,1000.78,VALID,0,VALID,94.592,VALID,0,VALID,23.0769,VALID,55,VALID,0,
2012-03-30, 03:11:05,VALID,1000.78,VALID,0,VALID,94.6226,VALID,0,VALID,23.0769,VALID,55,VALID,0,
2012-03-30, 03:12:05,VALID,1000.79,VALID,0,VALID,94.6683,VALID,0,VALID,23.0964,VALID,55,VALID,0,
2012-03-30, 03:13:05,VALID,1000.78,VALID,0,VALID,94.7294,VALID,0,VALID,23.0964,VALID,55,VALID,0.599609,
2012-03-30, 03:14:05,VALID,1000.74,VALID,0,VALID,94.7675,VALID,0,VALID,23.0946,VALID,65,VALID,0.930078,
2012-03-30, 03:15:05,VALID,1000.75,VALID,0,VALID,94.8362,VALID,0,VALID,23.1549,VALID,78,VALID,0.930859,
2012-03-30, 03:16:05,VALID,1000.74,VALID,0,VALID,94.8667,VALID,0,VALID,23.1744,VALID,78,VALID,0.702734,
2012-03-30, 03:17:05,VALID,1000.74,VALID,0,VALID,94.8896,VALID,0,VALID,23.1939,VALID,78,VALID,0.361328,
2012-03-30, 03:18:05,VALID,1000.73,VALID,0,VALID,94.8591,VALID,0,VALID,23.1744,VALID,78,VALID,0,
2012-03-30, 03:19:05,VALID,1000.7,VALID,0,VALID,94.8362,VALID,0,VALID,23.1939,VALID,78,VALID,0,
2012-03-30, 03:20:05,VALID,1000.7,VALID,0,VALID,94.8133,VALID,0,VALID,23.1744,VALID,78,VALID,0,
2012-03-30, 03:21:05,VALID,1000.69,VALID,0,VALID,94.7828,VALID,0,VALID,23.1336,VALID,78,VALID,0,
2012-03-30, 03:22:05,VALID,1000.67,VALID,0,VALID,94.7446,VALID,0,VALID,23.1141,VALID,78,VALID,0,
2012-03-30, 03:23:05,VALID,1000.67,VALID,0,VALID,94.7294,VALID,0,VALID,23.0946,VALID,78,VALID,0,
2012-03-30, 03:24:05,VALID,1000.65,VALID,0,VALID,94.7065,VALID,0,VALID,23.0946,VALID,78,VALID,0,
2012-03-30, 03:25:05,VALID,1000.66,VALID,0,VALID,94.7141,VALID,0,VALID,23.0946,VALID,78,VALID,0,
2012-03-30, 03:26:05,VALID,1000.68,VALID,0,VALID,94.6912,VALID,0,VALID,23.0964,VALID,78,VALID,0,
2012-03-30, 03:27:05,VALID,1000.65,VALID,0,VALID,94.7523,VALID,0,VALID,23.0946,VALID,78,VALID,0.341016,
2012-03-30, 03:28:05,VALID,1000.64,VALID,0,VALID,94.8133,VALID,0,VALID,23.1141,VALID,88,VALID,0.412891,
2012-03-30, 03:29:05,VALID,1000.63,VALID,0,VALID,94.8591,VALID,0,VALID,23.1744,VALID,109,VALID,0.446484,
2012-03-30, 03:30:05,VALID,1000.63,VALID,0,VALID,94.882,VALID,0,VALID,23.1921,VALID,109,VALID,0.544141,
2012-03-30, 03:31:05,VALID,1000.66,VALID,0,VALID,94.9048,VALID,0,VALID,23.2329,VALID,109,VALID,0.129297,
2012-03-30, 03:32:05,VALID,1000.65,VALID,0,VALID,94.8743,VALID,0,VALID,23.2117,VALID,109,VALID,0.00703125,
2012-03-30, 03:33:05,VALID,1000.68,VALID,0,VALID,94.8667,VALID,0,VALID,23.2117,VALID,108,VALID,0.141406,
2012-03-30, 03:34:05,VALID,1000.69,VALID,0,VALID,94.8514,VALID,0,VALID,23.2329,VALID,108,VALID,0.0277344,
2012-03-30, 03:35:05,VALID,1000.67,VALID,0,VALID,94.8209,VALID,0,VALID,23.2329,VALID,108,VALID,0,
2012-03-30, 03:36:05,VALID,1000.68,VALID,0,VALID,94.8057,VALID,0,VALID,23.2117,VALID,108,VALID,0.208203,
2012-03-30, 03:37:05,VALID,1000.69,VALID,0,VALID,94.7828,VALID,0,VALID,23.2329,VALID,108,VALID,0.134766,
2012-03-30, 03:38:05,VALID,1000.7,VALID,0,VALID,94.7904,VALID,0,VALID,23.2524,VALID,108,VALID,0.227344,
2012-03-30, 03:39:05,VALID,1000.7,VALID,0,VALID,94.7751,VALID,0,VALID,23.2524,VALID,108,VALID,0,
2012-03-30, 03:40:05,VALID,1000.73,VALID,0,VALID,94.7599,VALID,0,VALID,23.2329,VALID,108,VALID,0,
2012-03-30, 03:41:05,VALID,1000.69,VALID,0,VALID,94.7065,VALID,0,VALID,23.2117,VALID,64,VALID,0,
2012-03-30, 03:42:05,VALID,1000.67,VALID,0,VALID,94.6912,VALID,0,VALID,23.1726,VALID,44,VALID,0,
2012-03-30, 03:43:05,VALID,1000.64,VALID,0,VALID,94.6531,VALID,0,VALID,23.1726,VALID,44,VALID,0,
2012-03-30, 03:44:05,VALID,1000.65,VALID,0,VALID,94.676,VALID,0,VALID,23.1726,VALID,44,VALID,0,
2012-03-30, 03:45:05,VALID,1000.63,VALID,0,VALID,94.7141,VALID,0,VALID,23.1939,VALID,44,VALID,0,
2012-03-30, 03:46:05,VALID,1000.63,VALID,0,VALID,94.737,VALID,0,VALID,23.1921,VALID,44,VALID,0,
2012-03-30, 03:47:05,VALID,1000.64,VALID,0,VALID,94.7675,VALID,0,VALID,23.2312,VALID,85,VALID,0,
2012-03-30, 03:48:05,VALID,1000.66,VALID,0,VALID,94.7599,VALID,0,VALID,23.2312,VALID,85,VALID,0,
2012-03-30, 03:49:05,VALID,1000.64,VALID,0,VALID,94.7217,VALID,0,VALID,23.2312,VALID,85,VALID,0,
2012-03-30, 03:50:05,VALID,1000.66,VALID,0,VALID,94.6683,VALID,0,VALID,23.1921,VALID,85,VALID,0,